(275716) = 2000 YY41 = 2008 UE216

Discovered at Socorro on 2000-12-30 by LINEAR.

Orbit

Orbit type: Main Belt

Note: WebGL enabled browser required.

epoch2023-02-25.0
epoch JD2460000.5
perihelion date2020-12-07.23448
perihelion JD2459190.73448
argument of perihelion (°)252.14284
ascending node (°)105.01678
inclination (°)13.91141
eccentricity0.1949846
perihelion distance (AU)2.0873829
Tisserand w.r.t. Jupiter3.4
ΔV w.r.t. Earth (km/sec)10.0
semimajor axis (AU)2.5929728
mean anomaly (°)191.14643
mean daily motion (°/day)0.23605160
aphelion distance (AU)3.099
period (years)4.18
P-vector [x]0.97180655
P-vector [y]0.03892547
P-vector [z]-0.23254428
Q-vector [x]0.04086652
Q-vector [y]0.94354250
Q-vector [z]0.32872098
absolute magnitude15.42
phase slope0.15
uncertainty0
referenceMPO 745323
observations used832
oppositions16
arc length (days)8709
first opposition used1999
last opposition used2023
residual rms (arc-secs)0.72
perturbers coarse indicatorM-v
perturbers precise indicator003Ek
first observation date used1999-07-16.0
last observation date used2023-05-20.0
computer nameMPCLINUX
JD of orbit computation2456760.825582
perihelion JD uncertainty (days)8.3433E-05
argument of perihelion uncertainty (°)3.9886E-05
ascending node uncertainty (°)3.5082E-05
inclination uncertainty (°)6.9884E-06
eccentricity uncertainty 6.4963E-08
perihelion distance uncertainty (AU)1.7241E-07
Minimum Orbit Intersection Distances (in AU)
for orbit epoch: 2460000.5, reference: E2023-K70
Mercury1.71458
Venus1.37647
Earth1.12785
Mars0.77558
Jupiter2.43173
Saturn6.29673
Uranus15.4282
Neptune27.5085

Observations

853 total observations over interval: 1999 07 16.23286 – 2023 05 20.290943
These data are available for download (format description).

Date (UT) J2000 RA J2000 Dec Magn Location Ref
1999 07 16.23286 19 36 19.92 -24 49 46.2 18.2   704 – Lincoln Laboratory ETS, New Mexico MPS 312949
1999 07 16.24562 19 36 19.21 -24 49 54.1 18.4   704 – Lincoln Laboratory ETS, New Mexico MPS 312949
1999 07 16.25839 19 36 18.38 -24 50 02.5 18.0   704 – Lincoln Laboratory ETS, New Mexico MPS 312949
1999 07 16.27122 19 36 17.58 -24 50 08.9 18.1   704 – Lincoln Laboratory ETS, New Mexico MPS 312949
1999 07 16.28398 19 36 16.86 -24 50 16.8 17.9   704 – Lincoln Laboratory ETS, New Mexico MPS 312949
2000 12 30.30106 06 46 50.24 +21 00 24.5 18.1   704 – Lincoln Laboratory ETS, New Mexico MPS 24181
2000 12 30.31670 06 46 49.22 +21 00 31.2 18.6   704 – Lincoln Laboratory ETS, New Mexico MPS 24181
2000 12 30.33192 06 46 48.11 +21 00 37.1 18.4   704 – Lincoln Laboratory ETS, New Mexico MPS 24181
2000 12 30.34730 06 46 47.11 +21 00 42.6 18.4   704 – Lincoln Laboratory ETS, New Mexico MPS 24181
2000 12 30.36250 06 46 46.08 +21 00 48.7 18.5   704 – Lincoln Laboratory ETS, New Mexico MPS 24181
2001 01 02.29363 06 43 35.71 +21 20 00.0 18.4   704 – Lincoln Laboratory ETS, New Mexico MPS 24181
2001 01 02.29796 06 43 35.39 +21 20 01.4 18.2   704 – Lincoln Laboratory ETS, New Mexico MPS 24181
2001 01 02.30961 06 43 34.64 +21 20 06.3 18.5   704 – Lincoln Laboratory ETS, New Mexico MPS 24181
2001 01 02.31393 06 43 34.33 +21 20 08.8 18.4   704 – Lincoln Laboratory ETS, New Mexico MPS 24181
2001 01 02.32547 06 43 33.54 +21 20 12.9 18.9   704 – Lincoln Laboratory ETS, New Mexico MPS 24181
2001 01 02.32983 06 43 33.30 +21 20 15.5 18.5   704 – Lincoln Laboratory ETS, New Mexico MPS 24181
2001 01 02.34072 06 43 32.59 +21 20 17.8 18.8   704 – Lincoln Laboratory ETS, New Mexico MPS 24181
2001 01 02.34504 06 43 32.23 +21 20 20.4 18.5   704 – Lincoln Laboratory ETS, New Mexico MPS 24181
2001 01 03.21835 06 42 36.01 +21 26 00.6 18.5   704 – Lincoln Laboratory ETS, New Mexico MPS 24181
2001 01 03.23402 06 42 34.92 +21 26 06.3 18.7   704 – Lincoln Laboratory ETS, New Mexico MPS 24181
2001 01 03.26432 06 42 32.99 +21 26 17.6 19.1   704 – Lincoln Laboratory ETS, New Mexico MPS 24181
2001 01 03.27948 06 42 31.93 +21 26 24.1 19.1   704 – Lincoln Laboratory ETS, New Mexico MPS 24181
2001 01 03.31581 06 42 29.50 +21 26 39.0 18.7   704 – Lincoln Laboratory ETS, New Mexico MPS 24181
2001 01 03.33104 06 42 28.53 +21 26 44.1 18.8   704 – Lincoln Laboratory ETS, New Mexico MPS 24181
2001 01 03.34630 06 42 27.55 +21 26 50.6 18.4   704 – Lincoln Laboratory ETS, New Mexico MPS 24181
2001 01 03.36156 06 42 26.47 +21 26 55.7 19.0   704 – Lincoln Laboratory ETS, New Mexico MPS 24181
2002 03 10.49601 12 44 29.27 +16 18 33.8 20.2   644 – Palomar Mountain/NEAT MPS 264525
2002 03 10.50643 12 44 28.83 +16 18 38.4 20.1   644 – Palomar Mountain/NEAT MPS 264525
2002 03 10.51680 12 44 28.33 +16 18 43.2 20.1   644 – Palomar Mountain/NEAT MPS 264525
2007 03 14.45700 16 57 53.89 -10 07 38.3   291 – LPL/Spacewatch II MPS 264525
2007 03 14.46255 16 57 54.11 -10 07 37.9   291 – LPL/Spacewatch II MPS 264525
2007 03 14.46803 16 57 54.34 -10 07 37.5   291 – LPL/Spacewatch II MPS 264525
2007 06 09.26686 16 31 39.03 -09 14 43.0 18.8 V 703 – Catalina Sky Survey MPS 264525
2007 06 09.27659 16 31 38.46 -09 14 44.8 18.8 V 703 – Catalina Sky Survey MPS 264525
2007 06 09.28630 16 31 37.84 -09 14 46.2 18.7 V 703 – Catalina Sky Survey MPS 264525
2008 09 29.37487 04 18 04.49 +02 15 32.1 18.7 C 704 – Lincoln Laboratory ETS, New Mexico MPS 287349
2008 09 29.38714 04 18 04.57 +02 15 29.4 18.7 C 704 – Lincoln Laboratory ETS, New Mexico MPS 287349
2008 09 29.40039 04 18 04.74 +02 15 27.6 18.7 C 704 – Lincoln Laboratory ETS, New Mexico MPS 287349
2008 10 23.36021 04 13 17.56 +01 02 24.3   704 – Lincoln Laboratory ETS, New Mexico MPS 407507
2008 10 23.37175 04 13 17.08 +01 02 21.3   704 – Lincoln Laboratory ETS, New Mexico MPS 407507
2008 10 23.38317 04 13 16.66 +01 02 19.2   704 – Lincoln Laboratory ETS, New Mexico MPS 407507
2008 10 23.39468 04 13 16.23 +01 02 17.4   704 – Lincoln Laboratory ETS, New Mexico MPS 407507
2008 10 23.40611 04 13 15.74 +01 02 15.3   704 – Lincoln Laboratory ETS, New Mexico MPS 407507
2008 10 24.31831 04 12 42.72 +01 00 16.0   704 – Lincoln Laboratory ETS, New Mexico MPS 407507
2008 10 24.32976 04 12 42.25 +01 00 14.9   704 – Lincoln Laboratory ETS, New Mexico MPS 407507
2008 10 24.34120 04 12 41.82 +01 00 13.0   704 – Lincoln Laboratory ETS, New Mexico MPS 407507
2008 10 24.35265 04 12 41.37 +01 00 12.8   704 – Lincoln Laboratory ETS, New Mexico MPS 407507
2008 10 24.36416 04 12 40.88 +01 00 10.8   704 – Lincoln Laboratory ETS, New Mexico MPS 407507
2008 10 24.39123 04 12 39.85 +01 00 06.5 18.2 V 703 – Catalina Sky Survey MPS 264729
2008 10 24.40162 04 12 39.45 +01 00 05.2 18.1 V 703 – Catalina Sky Survey MPS 264729
2008 10 24.41227 04 12 39.02 +01 00 03.6 18.2 V 703 – Catalina Sky Survey MPS 264729
2008 10 24.42292 04 12 38.59 +01 00 02.3 18.2 V 703 – Catalina Sky Survey MPS 264729
2008 10 30.26417 04 08 31.09 +00 49 51.9 18.1 V 703 – Catalina Sky Survey MPS 264729
2008 10 30.27331 04 08 30.62 +00 49 50.6 18.0 V 703 – Catalina Sky Survey MPS 264729
2008 10 30.28250 04 08 30.19 +00 49 50.2 18.0 V 703 – Catalina Sky Survey MPS 264729
2008 10 30.30905 04 08 28.78 +00 49 47.7   704 – Lincoln Laboratory ETS, New Mexico MPS 407507
2008 10 30.32071 04 08 28.31 +00 49 47.3   704 – Lincoln Laboratory ETS, New Mexico MPS 407507
2008 10 30.33243 04 08 27.73 +00 49 45.7   704 – Lincoln Laboratory ETS, New Mexico MPS 407507
2008 10 30.34440 04 08 27.14 +00 49 44.8   704 – Lincoln Laboratory ETS, New Mexico MPS 407507
2008 10 30.35608 04 08 26.54 +00 49 43.5   704 – Lincoln Laboratory ETS, New Mexico MPS 407507
2008 11 06.35836 04 02 23.46 +00 44 50.2 18.1 V 703 – Catalina Sky Survey MPS 264729
2008 11 06.36816 04 02 22.92 +00 44 49.3 17.9 V 703 – Catalina Sky Survey MPS 264729
2008 11 06.37808 04 02 22.30 +00 44 50.0 17.9 V 703 – Catalina Sky Survey MPS 264729
2008 11 06.38796 04 02 21.76 +00 44 50.4 18.1 V 703 – Catalina Sky Survey MPS 264729
2008 11 17.38940 03 51 24.12 +00 56 39.3 17.7 V 703 – Catalina Sky Survey MPS 265134
2008 11 17.39587 03 51 23.61 +00 56 40.6 18.1 V 703 – Catalina Sky Survey MPS 265134
2008 11 17.40243 03 51 23.25 +00 56 41.1 18.1 V 703 – Catalina Sky Survey MPS 265134
2008 11 17.40899 03 51 22.86 +00 56 41.8 18.0 V 703 – Catalina Sky Survey MPS 265134
2008 11 28.02069 03 40 36.57 +01 33 03.6 18.4 V J75 – OAM Observatory, La Sagra MPS 267377
2008 11 28.03399 03 40 35.78 +01 33 08.0 18.4 V J75 – OAM Observatory, La Sagra MPS 267377
2008 11 28.04731 03 40 34.98 +01 33 11.8 18.4 V J75 – OAM Observatory, La Sagra MPS 267377
2008 12 01.29058 03 37 30.86 +01 49 13.4 18.2 V 703 – Catalina Sky Survey MPS 267377
2008 12 01.29853 03 37 30.43 +01 49 15.9 18.2 V 703 – Catalina Sky Survey MPS 267377
2008 12 01.30637 03 37 29.96 +01 49 18.0 18.2 V 703 – Catalina Sky Survey MPS 267377
2008 12 01.31412 03 37 29.49 +01 49 20.9 18.2 V 703 – Catalina Sky Survey MPS 267377
2008 12 02.28019 03 36 36.75 +01 54 32.6 18.0 V G96 – Mt. Lemmon Survey MPS 267377
2008 12 02.28678 03 36 36.39 +01 54 34.5 18.1 V G96 – Mt. Lemmon Survey MPS 267377
2008 12 02.29344 03 36 36.00 +01 54 36.8 18.1 V G96 – Mt. Lemmon Survey MPS 267377
2008 12 02.29998 03 36 35.64 +01 54 39.0 18.2 V G96 – Mt. Lemmon Survey MPS 267377
2008 12 22.25215 03 23 19.93 +04 18 13.2 18.4 V 703 – Catalina Sky Survey MPS 269183
2008 12 22.25861 03 23 19.71 +04 18 16.7 18.2 V 703 – Catalina Sky Survey MPS 269183
2008 12 22.26518 03 23 19.60 +04 18 18.7 18.2 V 703 – Catalina Sky Survey MPS 269183
2008 12 22.27178 03 23 19.39 +04 18 23.0 18.5 V 703 – Catalina Sky Survey MPS 269183
2008 12 30.19270 03 21 12.38 +05 29 38.4 19.5   704 – Lincoln Laboratory ETS, New Mexico MPS 270011
2008 12 30.21657 03 21 12.10 +05 29 52.8 20.0   704 – Lincoln Laboratory ETS, New Mexico MPS 270011
2008 12 30.22843 03 21 12.02 +05 29 58.3 19.2   704 – Lincoln Laboratory ETS, New Mexico MPS 270011
2008 12 30.24030 03 21 11.85 +05 30 04.5 19.7   704 – Lincoln Laboratory ETS, New Mexico MPS 270011
2009 01 18.14588 03 23 45.03 +08 35 35.7 19.7   704 – Lincoln Laboratory ETS, New Mexico MPS 272212
